Location: Benque
(43.2594°N, 0.9178°E)
Time: 15:38:34
(UTC+00:00)

Meteor 2-10 Rocket - Pass Details

Date: 24 January 2020
Orbit: 733 x 885 km, 81.2° (Epoch: 23 February)

Event Time Altitude Azimuth Distance (km) Brightness Sun altitude
Rises 17:47:51 0° 354° (N) 3,317 6.7 -9.4°
Reaches altitude 10° 17:50:22 10° 360° (N) 2,359 5.9 -9.9°
Maximum altitude 17:55:29 49° 75° (ENE) 983 3.7 -10.8°
Drops below altitude 10° 18:00:24 10° 150° (SSE) 2,262 5.8 -11.6°
Sets 18:02:46 0° 156° (SSE) 3,168 6.6 -12.0°
